This demonstration page uses our WeatherBlox Daily Observations layout. Learn more.

Left ArrowRight Arrow

30.21309, -93.2044

Hourly Observations for January 8, 2022

Temp ( °F °C ) Dew Point ( °F °C ) Humidity (%) Winds ( mph kmh ) Pressure ( in mb ) Visibility ( mi km ) Precip ( " mm )
12:15 am 00:15 Cloudy 48 8.7 40 4.5 75 75 ESE 8 13 30.18 1022 10 16 0.00 0.00
12:35 am 00:35 Cloudy 48 8.8 41 4.9 77 77 E 8 13 30.18 1022 10 16 0.00 0.00
12:55 am 00:55 Cloudy 49 9.2 42 5.3 77 77 E 8 13 30.17 1022 10 16 0.00 0.00
1:15 am 01:15 Cloudy 49 9.3 42 5.3 76 76 E 10 17 30.15 1021 10 16 0.00 0.00
1:35 am 01:35 Cloudy 49 9.6 42 5.7 77 77 E 10 17 30.15 1021 10 16 0.00 0.00
1:55 am 01:55 Cloudy 50 9.8 43 5.9 77 77 E 9 15 30.15 1021 10 16 0.00 0.00
2:15 am 02:15 Cloudy 50 9.9 43 6.1 77 77 E 10 17 30.15 1021 10 16 0.00 0.00
2:35 am 02:35 Cloudy 51 10.3 44 6.7 79 79 ESE 12 19 30.16 1021 10 16 0.00 0.00
2:55 am 02:55 Cloudy 51 10.5 45 7 79 79 E 9 15 30.15 1021 10 16 0.00 0.00
3:15 am 03:15 Cloudy 51 10.5 45 7.3 81 81 ESE 8 13 30.15 1021 10 16 0.00 0.00
3:35 am 03:35 Cloudy 51 10.7 46 7.5 81 81 ESE 9 15 30.14 1021 10 16 0.00 0.00
3:55 am 03:55 Cloudy 51 10.7 46 7.7 82 82 ESE 7 11 30.14 1021 10 16 0.00 0.00
4:15 am 04:15 Cloudy 51 10.7 46 7.8 82 82 E 7 11 30.13 1020 10 16 0.00 0.00
4:35 am 04:35 Cloudy 51 10.7 47 8.1 84 84 E 7 11 30.13 1020 10 16 0.00 0.00
4:55 am 04:55 Cloudy with Light Rain 51 10.7 47 8.4 86 86 ESE 9 15 30.13 1020 10 16 0.00 0.00
5:15 am 05:15 Mostly Cloudy 51 10.6 47 8.3 86 86 E 8 13 30.12 1020 10 16 0.00 0.00
5:35 am 05:35 Partly Cloudy 51 10.3 47 8.3 88 88 E 7 11 30.13 1020 10 16 0.00 0.00
6:00 am 06:00 Mostly Clear 50 10 46 8 88 88 E 8 13 30.13 1020 10 16 0.00 0.00
6:51 am 06:51 Partly Cloudy 52 11 48 9 88 88 E 6 9 30.13 1020 10 16 0.00 0.00
7:47 am 07:47 Cloudy 55 13 52 11 88 88 ESE 9 15 30.15 1021 10 16 0.00 0.00
8:54 am 08:54 Cloudy 59 15 54 12 82 82 SE 12 19 30.16 1021 10 16 0.00 0.00
9:51 am 09:51 Cloudy 64 18 57 14 78 78 SE 17 28 30.17 1022 10 16 0.00 0.00
10:51 am 10:51 Mostly Cloudy 66 19 61 16 83 83 SSE 20 31 30.18 1022 10 16 0.00 0.00
11:51 am 11:51 Mostly Cloudy 70 21 61 16 73 73 SE 22 35 30.13 1020 10 16 0.00 0.00
12:55 pm 12:55 Mostly Cloudy 68 20 61 16 78 78 SE 22 35 30.10 1019 10 16 0.00 0.00
1:45 pm 13:45 Cloudy 66 19 61 16 83 83 SE 22 35 30.09 1019 10 16 0.00 0.00
2:47 pm 14:47 Cloudy 68 20 63 17 83 83 SE 15 24 30.08 1019 10 16 0.00 0.00
3:55 pm 15:55 Cloudy 68 20 63 17 83 83 SE 15 24 30.08 1019 10 16 0.00 0.00
4:47 pm 16:47 Cloudy 70 21 63 17 78 78 SE 15 24 30.10 1019 10 16 0.00 0.00
5:50 pm 17:50 Mostly Cloudy 68 20 64 18 88 88 ESE 15 24 30.10 1019 10 16 0.00 0.00
6:49 pm 18:49 Mostly Cloudy 68 20 64 18 88 88 SE 12 19 30.12 1020 10 16 0.00 0.00
7:45 pm 19:45 Mostly Cloudy 66 19 64 18 94 94 SE 12 19 30.12 1020 10 16 0.00 0.00
8:53 pm 20:53 Cloudy 66 19 64 18 94 94 SE 12 19 30.13 1020 10 16 0.00 0.00
9:55 pm 21:55 Partly Cloudy 66 19 63 17 88 88 SE 12 19 30.13 1020 10 16 0.00 0.00
10:15 pm 22:15 Mostly Cloudy 67 19.2 64 17.6 91 91 SE 13 20 30.13 1020 10 16 0.00 0.00
10:35 pm 22:35 Cloudy 67 19.5 64 17.9 91 91 SE 14 22 30.13 1020 10 16 0.00 0.00
10:55 pm 22:55 Cloudy 66 18.9 63 17.4 91 91 SE 15 24 30.12 1020 10 16 0.00 0.00
11:15 pm 23:15 Cloudy 66 19.1 64 17.6 91 91 SE 12 19 30.13 1020 10 16 0.00 0.00
11:35 pm 23:35 Cloudy 66 18.9 64 17.5 92 92 SE 13 20 30.13 1020 10 16 0.00 0.00
11:55 pm 23:55 Cloudy 65 18.3 63 17.1 93 93 ESE 10 17 30.12 1020 10 16 0.00 0.00

Powered by AerisWeather